owner,sensor,date,latitude,longitude,vertical_datum,wind_speed,wind_to_direction,wind_speed_of_gust,qcFlag 
TABS,ioos:station:wmo:42046:1,2012-06-01T00:00:00Z,27.8903,-94.0367,4.0,6.868922769,177.0794958,8.04,'11111222,11111222,11111222' 
TABS,ioos:station:wmo:42046:1,2012-06-01T00:30:00Z,27.8903,-94.0367,4.0,7.185095685,184.79033,8.27,'11111222,11111222,11111222' 
TABS,ioos:station:wmo:42046:1,2012-06-01T01:00:00Z,27.8903,-94.0367,4.0,7.424372027,189.1453324,8.5,'11111222,11111222,11111222' 
TABS,ioos:station:wmo:42046:1,2012-06-01T01:30:00Z,27.8903,-94.0367,4.0,7.60384771,191.9160061,8.69,'11111222,11111222,11111222' 
TABS,ioos:station:wmo:42046:1,2012-06-01T02:00:00Z,27.8903,-94.0367,4.0,6.80412375,192.2184464,8.09,'11111222,11111222,11111222' 
TABS,ioos:station:wmo:42046:1,2012-06-01T02:30:00Z,27.8903,-94.0367,4.0,7.563048327,184.4744397,8.67,'11111222,11111222,11111222' 
TABS,ioos:station:wmo:42046:1,2012-06-01T03:00:00Z,27.8903,-94.0367,4.0,6.180291255,179.4439595,7.14,'11111222,11111222,11111222' 
TABS,ioos:station:wmo:42046:1,2012-06-01T03:30:00Z,27.8903,-94.0367,4.0,5.704804992,189.8918071,7.16,'11111222,11111222,11111222' 
TABS,ioos:station:wmo:42046:1,2012-06-01T04:00:00Z,27.8903,-94.0367,4.0,4.802082881,185.4970901,5.61,'11111222,11111222,11111222' 
TABS,ioos:station:wmo:42046:1,2012-06-01T04:30:00Z,27.8903,-94.0367,4.0,4.315518509,189.2005894,4.99,'11111222,11111222,11111222' 
TABS,ioos:station:wmo:42046:1,2012-06-01T05:00:00Z,27.8903,-94.0367,4.0,3.846257922,192.1573641,4.89,'11111222,11111222,11111222' 
TABS,ioos:station:wmo:42046:1,2012-06-01T05:30:00Z,27.8903,-94.0367,4.0,3.219270104,192.741337,3.92,'11111222,11111222,11111222' 
TABS,ioos:station:wmo:42046:1,2012-06-01T06:00:00Z,27.8903,-94.0367,4.0,2.638560213,206.5651995,3.23,'11111222,11111222,11111222' 
TABS,ioos:station:wmo:42046:1,2012-06-01T06:30:00Z,27.8903,-94.0367,4.0,2.360275408,213.4208915,2.87,'11111222,11111222,11111222' 
TABS,ioos:station:wmo:42046:1,2012-06-01T07:00:00Z,27.8903,-94.0367,4.0,2.862446506,236.9762097,3.3,'11111222,11111222,11111222' 
TABS,ioos:station:wmo:42046:1,2012-06-01T07:30:00Z,27.8903,-94.0367,4.0,1.939407126,246.6075049,2.51,'11111222,11111222,11111222' 
TABS,ioos:station:wmo:42046:1,2012-06-01T08:00:00Z,27.8903,-94.0367,4.0,2.209886875,248.7763931,2.73,'11111222,11111222,11111222' 
TABS,ioos:station:wmo:42046:1,2012-06-01T08:30:00Z,27.8903,-94.0367,4.0,2.06494552,248.4047401,2.6,'11111222,11111222,11111222' 
TABS,ioos:station:wmo:42046:1,2012-06-01T09:00:00Z,27.8903,-94.0367,4.0,1.625423022,214.4723437,2.11,'11111222,11111222,11111222' 
TABS,ioos:station:wmo:42046:1,2012-06-01T09:30:00Z,27.8903,-94.0367,4.0,0.968968524,226.2545539,1.45,'11111222,11111222,11111222' 
TABS,ioos:station:wmo:42046:1,2012-06-01T10:00:00Z,27.8903,-94.0367,4.0,0.750266619,201.0925006,1.22,'11111222,11111222,11111222' 
TABS,ioos:station:wmo:42046:1,2012-06-01T10:30:00Z,27.8903,-94.0367,4.0,1.204159458,221.6336524,1.68,'11111222,11111222,11111222' 
TABS,ioos:station:wmo:42046:1,2012-06-01T11:00:00Z,27.8903,-94.0367,4.0,1.207393888,230.3767981,1.63,'11111222,11111222,11111222' 
TABS,ioos:station:wmo:42046:1,2012-06-01T11:30:00Z,27.8903,-94.0367,4.0,1.059056184,259.1144984,1.53,'11111222,11111222,11111222' 
TABS,ioos:station:wmo:42046:1,2012-06-01T12:00:00Z,27.8903,-94.0367,4.0,0.306757233,250.9744385,0.69,'11111222,11111222,11111222' 
TABS,ioos:station:wmo:42046:1,2012-06-01T12:30:00Z,27.8903,-94.0367,4.0,1.132298547,231.8144422,1.92,'11111222,11111222,11111222' 
TABS,ioos:station:wmo:42046:1,2012-06-01T13:00:00Z,27.8903,-94.0367,4.0,1.826499384,260.2282755,2.58,'11111222,11111222,11111222' 
TABS,ioos:station:wmo:42046:1,2012-06-01T13:30:00Z,27.8903,-94.0367,4.0,2.832331195,247.1467741,3.43,'11111222,11111222,11111222' 
TABS,ioos:station:wmo:42046:1,2012-06-01T14:00:00Z,27.8903,-94.0367,4.0,2.471639132,284.7671262,3.25,'11111222,11111222,11111222' 
TABS,ioos:station:wmo:42046:1,2012-06-01T14:30:00Z,27.8903,-94.0367,4.0,1.643045952,273.4893167,2.2,'11111222,11111222,11111222' 
TABS,ioos:station:wmo:42046:1,2012-06-01T15:00:00Z,27.8903,-94.0367,4.0,3.608462276,254.0764517,4.18,'11111222,11111222,11111222' 
TABS,ioos:station:wmo:42046:1,2012-06-01T15:30:00Z,27.8903,-94.0367,4.0,3.836039624,281.4270749,4.55,'11111222,11111222,11111222' 
TABS,ioos:station:wmo:42046:1,2012-06-01T16:00:00Z,27.8903,-94.0367,4.0,3.928612987,266.2053366,4.81,'11111222,11111222,11111222' 
TABS,ioos:station:wmo:42046:1,2012-06-01T16:30:00Z,27.8903,-94.0367,4.0,3.995522494,273.0127805,4.89,'11111222,11111222,11111222' 
TABS,ioos:station:wmo:42046:1,2012-06-01T17:00:00Z,27.8903,-94.0367,4.0,4.263918386,282.0478036,5.21,'11111222,11111222,11111222' 
TABS,ioos:station:wmo:42046:1,2012-06-01T17:30:00Z,27.8903,-94.0367,4.0,3.714458238,281.4914122,4.47,'11111222,11111222,11111222' 
TABS,ioos:station:wmo:42046:1,2012-06-01T18:00:00Z,27.8903,-94.0367,4.0,4.203153578,283.9039647,5.4,'11111222,11111222,11111222' 
TABS,ioos:station:wmo:42046:1,2012-06-01T18:30:00Z,27.8903,-94.0367,4.0,4.782102048,327.207049,5.55,'11111222,11111222,11111222' 
TABS,ioos:station:wmo:42046:1,2012-06-01T19:00:00Z,27.8903,-94.0367,4.0,3.739959893,348.9001969,4.49,'11111222,11111222,11111222' 
TABS,ioos:station:wmo:42046:1,2012-06-01T19:30:00Z,27.8903,-94.0367,4.0,3.562527193,6.446529845,4.18,'11111222,11111222,11111222' 
TABS,ioos:station:wmo:42046:1,2012-06-01T20:00:00Z,27.8903,-94.0367,4.0,3.609224293,38.36199914,4.66,'11111222,11111222,11111222' 
TABS,ioos:station:wmo:42046:1,2012-06-01T20:30:00Z,27.8903,-94.0367,4.0,3.557597504,46.25247091,4.5,'11111222,11111222,11111222' 
TABS,ioos:station:wmo:42046:1,2012-06-01T21:00:00Z,27.8903,-94.0367,4.0,3.822800021,47.75623474,4.75,'11111222,11111222,11111222' 
TABS,ioos:station:wmo:42046:1,2012-06-01T21:30:00Z,27.8903,-94.0367,4.0,3.900064102,50.5138699,4.96,'11111222,11111222,11111222' 
TABS,ioos:station:wmo:42046:1,2012-06-01T22:00:00Z,27.8903,-94.0367,4.0,2.939200572,51.49208097,3.75,'11111222,11111222,11111222' 
TABS,ioos:station:wmo:42046:1,2012-06-01T22:30:00Z,27.8903,-94.0367,4.0,2.919263606,50.42026692,3.64,'11111222,11111222,11111222' 
TABS,ioos:station:wmo:42046:1,2012-06-01T23:00:00Z,27.8903,-94.0367,4.0,2.856168763,66.03714614,3.74,'11111222,11111222,11111222' 
TABS,ioos:station:wmo:42046:1,2012-06-01T23:30:00Z,27.8903,-94.0367,4.0,3.331816321,63.81911879,4.06,'11111222,11111222,11111222' 
TABS,ioos:station:wmo:42046:1,2012-06-02T00:00:00Z,27.8903,-94.0367,4.0,4.141895701,62.38284427,4.82,'11111222,11111222,11111222' 
TABS,ioos:station:wmo:42046:1,2012-06-02T00:30:00Z,27.8903,-94.0367,4.0,3.711616898,73.5665195,4.46,'11111222,11111222,11111222' 
TABS,ioos:station:wmo:42046:1,2012-06-02T01:00:00Z,27.8903,-94.0367,4.0,3.150634857,83.4384947,3.7,'11111222,11111222,11111222' 
TABS,ioos:station:wmo:42046:1,2012-06-02T01:30:00Z,27.8903,-94.0367,4.0,3.682852156,73.4344857,4.55,'11111222,11111222,11111222' 
TABS,ioos:station:wmo:42046:1,2012-06-02T02:00:00Z,27.8903,-94.0367,4.0,3.823885459,72.65453351,4.57,'11111222,11111222,11111222' 
TABS,ioos:station:wmo:42046:1,2012-06-02T02:30:00Z,27.8903,-94.0367,4.0,3.550126758,90.48459795,4.09,'11111222,11111222,11111222' 
TABS,ioos:station:wmo:42046:1,2012-06-02T03:00:00Z,27.8903,-94.0367,4.0,3.255549109,101.5174187,4.0,'11111222,11111222,11111222' 
TABS,ioos:station:wmo:42046:1,2012-06-02T03:30:00Z,27.8903,-94.0367,4.0,3.070586263,91.12006298,3.65,'11111222,11111222,11111222' 
TABS,ioos:station:wmo:42046:1,2012-06-02T04:00:00Z,27.8903,-94.0367,4.0,3.323401872,98.13050426,4.08,'11111222,11111222,11111222' 
TABS,ioos:station:wmo:42046:1,2012-06-02T04:30:00Z,27.8903,-94.0367,4.0,3.030577503,106.8807116,3.94,'11111222,11111222,11111222' 
TABS,ioos:station:wmo:42046:1,2012-06-02T05:00:00Z,27.8903,-94.0367,4.0,2.989331029,121.4571707,3.58,'11111222,11111222,11111222' 
TABS,ioos:station:wmo:42046:1,2012-06-02T05:30:00Z,27.8903,-94.0367,4.0,2.229910312,137.7266203,3.05,'11111222,11111222,11111222' 
TABS,ioos:station:wmo:42046:1,2012-06-02T06:00:00Z,27.8903,-94.0367,4.0,2.622746652,130.9807426,3.27,'11111222,11111222,11111222' 
TABS,ioos:station:wmo:42046:1,2012-06-02T06:30:00Z,27.8903,-94.0367,4.0,2.701481075,134.1004581,3.45,'11111222,11111222,11111222' 
TABS,ioos:station:wmo:42046:1,2012-06-02T07:00:00Z,27.8903,-94.0367,4.0,2.113409567,146.3854128,3.08,'11111222,11111222,11111222' 
TABS,ioos:station:wmo:42046:1,2012-06-02T07:30:00Z,27.8903,-94.0367,4.0,2.071834936,162.8771895,3.03,'11111222,11111222,11111222' 
TABS,ioos:station:wmo:42046:1,2012-06-02T08:00:00Z,27.8903,-94.0367,4.0,2.438237068,158.5915806,3.33,'11111222,11111222,11111222' 
TABS,ioos:station:wmo:42046:1,2012-06-02T08:30:00Z,27.8903,-94.0367,4.0,2.531027459,158.198852,3.47,'11111222,11111222,11111222' 
TABS,ioos:station:wmo:42046:1,2012-06-02T09:00:00Z,27.8903,-94.0367,4.0,3.641236054,167.1471527,4.44,'11111222,11111222,11111222' 
TABS,ioos:station:wmo:42046:1,2012-06-02T09:30:00Z,27.8903,-94.0367,4.0,3.390929076,166.7016712,4.3,'11111222,11111222,11111222' 
TABS,ioos:station:wmo:42046:1,2012-06-02T10:00:00Z,27.8903,-94.0367,4.0,3.682281901,159.9905634,4.75,'11111222,11111222,11111222' 
TABS,ioos:station:wmo:42046:1,2012-06-02T10:30:00Z,27.8903,-94.0367,4.0,3.850986887,147.8371936,4.98,'11111222,11111222,11111222' 
TABS,ioos:station:wmo:42046:1,2012-06-02T11:00:00Z,27.8903,-94.0367,4.0,4.373522608,161.1924533,5.23,'11111222,11111222,11111222' 
TABS,ioos:station:wmo:42046:1,2012-06-02T11:30:00Z,27.8903,-94.0367,4.0,4.314776935,165.6419366,5.16,'11111222,11111222,11111222' 
TABS,ioos:station:wmo:42046:1,2012-06-02T12:00:00Z,27.8903,-94.0367,4.0,4.021989557,174.0061315,5.23,'11111222,11111222,11111222' 
TABS,ioos:station:wmo:42046:1,2012-06-02T12:30:00Z,27.8903,-94.0367,4.0,4.108138264,173.2903893,5.03,'11111222,11111222,11111222' 
TABS,ioos:station:wmo:42046:1,2012-06-02T13:00:00Z,27.8903,-94.0367,4.0,3.601846749,161.7162148,4.53,'11111222,11111222,11111222' 
TABS,ioos:station:wmo:42046:1,2012-06-02T13:30:00Z,27.8903,-94.0367,4.0,2.727379695,170.5033741,3.69,'11111222,11111222,11111222' 
TABS,ioos:station:wmo:42046:1,2012-06-02T14:00:00Z,27.8903,-94.0367,4.0,2.343608329,191.0703871,3.24,'11111222,11111222,11111222' 
TABS,ioos:station:wmo:42046:1,2012-06-02T14:30:00Z,27.8903,-94.0367,4.0,2.391338537,181.9173405,3.19,'11111222,11111222,11111222' 
TABS,ioos:station:wmo:42046:1,2012-06-02T15:00:00Z,27.8903,-94.0367,4.0,3.316021713,196.4677187,4.14,'11111222,11111222,11111222' 
TABS,ioos:station:wmo:42046:1,2012-06-02T15:30:00Z,27.8903,-94.0367,4.0,1.242577965,183.6915878,2.15,'11111222,11111222,11111222' 
TABS,ioos:station:wmo:42046:1,2012-06-02T16:00:00Z,27.8903,-94.0367,4.0,2.693139432,177.2334285,3.25,'11111222,11111222,11111222' 
TABS,ioos:station:wmo:42046:1,2012-06-02T16:30:00Z,27.8903,-94.0367,4.0,2.470020243,180.2321754,3.52,'11111222,11111222,11111222' 
TABS,ioos:station:wmo:42046:1,2012-06-02T17:00:00Z,27.8903,-94.0367,4.0,2.941377228,178.2468097,3.74,'11111222,11111222,11111222' 
TABS,ioos:station:wmo:42046:1,2012-06-02T17:30:00Z,27.8903,-94.0367,4.0,2.312336481,134.4746823,2.87,'11111222,11111222,11111222' 
TABS,ioos:station:wmo:42046:1,2012-06-02T18:00:00Z,27.8903,-94.0367,4.0,2.738795356,139.7393769,3.6,'11111222,11111222,11111222' 
TABS,ioos:station:wmo:42046:1,2012-06-02T18:30:00Z,27.8903,-94.0367,4.0,3.107748381,132.2616094,4.0,'11111222,11111222,11111222' 
TABS,ioos:station:wmo:42046:1,2012-06-02T19:00:00Z,27.8903,-94.0367,4.0,2.621907702,155.1946027,3.8,'11111222,11111222,11111222' 
TABS,ioos:station:wmo:42046:1,2012-06-02T19:30:00Z,27.8903,-94.0367,4.0,1.8817545,173.5927852,2.93,'11111222,11111222,11111222' 
TABS,ioos:station:wmo:42046:1,2012-06-02T20:00:00Z,27.8903,-94.0367,4.0,2.639337038,141.3065899,3.72,'11111222,11111222,11111222' 
TABS,ioos:station:wmo:42046:1,2012-06-02T20:30:00Z,27.8903,-94.0367,4.0,2.764434843,140.7254782,3.53,'11111222,11111222,11111222' 
TABS,ioos:station:wmo:42046:1,2012-06-02T21:00:00Z,27.8903,-94.0367,4.0,2.437724349,152.3840431,3.39,'11111222,11111222,11111222' 
TABS,ioos:station:wmo:42046:1,2012-06-02T21:30:00Z,27.8903,-94.0367,4.0,2.371434165,158.7372447,3.03,'11111222,11111222,11111222' 
TABS,ioos:station:wmo:42046:1,2012-06-02T22:00:00Z,27.8903,-94.0367,4.0,3.134645115,158.6740419,3.76,'11111222,11111222,11111222' 
TABS,ioos:station:wmo:42046:1,2012-06-02T22:30:00Z,27.8903,-94.0367,4.0,3.09142362,133.2963711,3.96,'11111222,11111222,11111222' 
TABS,ioos:station:wmo:42046:1,2012-06-02T23:00:00Z,27.8903,-94.0367,4.0,4.78023012,134.4917878,5.72,'11111222,11111222,11111222' 
TABS,ioos:station:wmo:42046:1,2012-06-02T23:30:00Z,27.8903,-94.0367,4.0,4.930162269,144.8273792,5.78,'11111222,11111222,11111222' 
TABS,ioos:station:wmo:42046:1,2012-06-03T00:00:00Z,27.8903,-94.0367,4.0,4.915058494,141.9412829,5.88,'11111222,11111222,11111222' 
TABS,ioos:station:wmo:42046:1,2012-06-03T00:30:00Z,27.8903,-94.0367,4.0,4.949929292,135.4914092,5.86,'11111222,11111222,11111222' 
TABS,ioos:station:wmo:42046:1,2012-06-03T01:00:00Z,27.8903,-94.0367,4.0,5.063200569,134.3601675,5.92,'11111222,11111222,11111222' 
TABS,ioos:station:wmo:42046:1,2012-06-03T01:30:00Z,27.8903,-94.0367,4.0,5.094752202,140.6555068,6.01,'11111222,11111222,11111222' 
TABS,ioos:station:wmo:42046:1,2012-06-03T02:00:00Z,27.8903,-94.0367,4.0,4.929300153,149.7940447,6.32,'11111222,11111222,11111222' 
TABS,ioos:station:wmo:42046:1,2012-06-03T02:30:00Z,27.8903,-94.0367,4.0,4.741782365,144.7014048,5.63,'11111222,11111222,11111222' 
TABS,ioos:station:wmo:42046:1,2012-06-03T03:00:00Z,27.8903,-94.0367,4.0,5.094398885,150.8692073,6.18,'11111222,11111222,11111222' 
TABS,ioos:station:wmo:42046:1,2012-06-03T03:30:00Z,27.8903,-94.0367,4.0,5.223887441,164.3411017,6.16,'11111222,11111222,11111222' 
TABS,ioos:station:wmo:42046:1,2012-06-03T04:00:00Z,27.8903,-94.0367,4.0,5.010878167,169.0715223,6.0,'11111222,11111222,11111222' 
TABS,ioos:station:wmo:42046:1,2012-06-03T04:30:00Z,27.8903,-94.0367,4.0,5.401453508,159.5187038,6.18,'11111222,11111222,11111222' 
TABS,ioos:station:wmo:42046:1,2012-06-03T05:00:00Z,27.8903,-94.0367,4.0,5.765214653,162.2252912,6.65,'11111222,11111222,11111222' 
TABS,ioos:station:wmo:42046:1,2012-06-03T05:30:00Z,27.8903,-94.0367,4.0,6.669347794,163.3586054,7.78,'11111222,11111222,11111222' 
TABS,ioos:station:wmo:42046:1,2012-06-03T06:00:00Z,27.8903,-94.0367,4.0,6.51116733,159.0322438,7.47,'11111222,11111222,11111222' 
TABS,ioos:station:wmo:42046:1,2012-06-03T06:30:00Z,27.8903,-94.0367,4.0,6.981146038,166.9195023,8.18,'11111222,11111222,11111222' 
TABS,ioos:station:wmo:42046:1,2012-06-03T07:00:00Z,27.8903,-94.0367,4.0,7.365826498,166.0960607,8.93,'11111222,11111222,11111222' 
TABS,ioos:station:wmo:42046:1,2012-06-03T07:30:00Z,27.8903,-94.0367,4.0,7.46127335,176.8502049,8.88,'11111222,11111222,11111222' 
TABS,ioos:station:wmo:42046:1,2012-06-03T08:00:00Z,27.8903,-94.0367,4.0,8.073567984,178.2967528,9.54,'11111222,11111222,11111222' 
TABS,ioos:station:wmo:42046:1,2012-06-03T08:30:00Z,27.8903,-94.0367,4.0,7.957342521,174.4472524,9.03,'11111222,11111222,11111222' 
TABS,ioos:station:wmo:42046:1,2012-06-03T09:00:00Z,27.8903,-94.0367,4.0,8.445827372,175.5182671,9.71,'11111222,11111222,11111222' 
TABS,ioos:station:wmo:42046:1,2012-06-03T09:30:00Z,27.8903,-94.0367,4.0,7.65800235,177.3806678,9.2,'11111222,11111222,11111222' 
TABS,ioos:station:wmo:42046:1,2012-06-03T10:00:00Z,27.8903,-94.0367,4.0,7.63840952,172.3262761,8.87,'11111222,11111222,11111222' 
TABS,ioos:station:wmo:42046:1,2012-06-03T10:30:00Z,27.8903,-94.0367,4.0,6.921567741,176.6872278,8.53,'11111222,11111222,11111222' 
TABS,ioos:station:wmo:42046:1,2012-06-03T11:00:00Z,27.8903,-94.0367,4.0,6.010207983,179.5235522,6.98,'11111222,11111222,11111222' 
TABS,ioos:station:wmo:42046:1,2012-06-03T11:30:00Z,27.8903,-94.0367,4.0,6.217242154,177.2344551,6.94,'11111222,11111222,11111222' 
TABS,ioos:station:wmo:42046:1,2012-06-03T12:00:00Z,27.8903,-94.0367,4.0,6.707637438,177.26578,7.85,'11111222,11111222,11111222' 
TABS,ioos:station:wmo:42046:1,2012-06-03T12:30:00Z,27.8903,-94.0367,4.0,6.379725699,168.4261087,7.55,'11111222,11111222,11111222' 
TABS,ioos:station:wmo:42046:1,2012-06-03T13:00:00Z,27.8903,-94.0367,4.0,5.581442466,161.4029946,6.33,'11111222,11111222,11111222' 
TABS,ioos:station:wmo:42046:1,2012-06-03T13:30:00Z,27.8903,-94.0367,4.0,5.277309921,170.1809328,5.87,'11111222,11111222,11111222' 
TABS,ioos:station:wmo:42046:1,2012-06-03T14:00:00Z,27.8903,-94.0367,4.0,5.212532974,165.217519,5.94,'11111222,11111222,11111222' 
TABS,ioos:station:wmo:42046:1,2012-06-03T14:30:00Z,27.8903,-94.0367,4.0,5.640939638,173.996535,6.53,'11111222,11111222,11111222' 
TABS,ioos:station:wmo:42046:1,2012-06-03T15:00:00Z,27.8903,-94.0367,4.0,5.148844531,162.480268,6.17,'11111222,11111222,11111222' 
TABS,ioos:station:wmo:42046:1,2012-06-03T15:30:00Z,27.8903,-94.0367,4.0,5.009830336,162.5780011,5.9,'11111222,11111222,11111222' 
TABS,ioos:station:wmo:42046:1,2012-06-03T16:00:00Z,27.8903,-94.0367,4.0,5.568213358,154.125497,6.76,'11111222,11111222,11111222' 
TABS,ioos:station:wmo:42046:1,2012-06-03T16:30:00Z,27.8903,-94.0367,4.0,5.595578612,150.915838,6.65,'11111222,11111222,11111222' 
TABS,ioos:station:wmo:42046:1,2012-06-03T17:00:00Z,27.8903,-94.0367,4.0,5.839871574,149.6590977,6.85,'11111222,11111222,11111222' 
TABS,ioos:station:wmo:42046:1,2012-06-03T17:30:00Z,27.8903,-94.0367,4.0,5.930134906,153.1327585,6.8,'11111222,11111222,11111222' 
TABS,ioos:station:wmo:42046:1,2012-06-03T18:00:00Z,27.8903,-94.0367,4.0,6.125961149,155.401502,7.08,'11111222,11111222,11111222' 
TABS,ioos:station:wmo:42046:1,2012-06-03T18:30:00Z,27.8903,-94.0367,4.0,5.727172077,158.8119143,7.1,'11111222,11111222,11111222' 
TABS,ioos:station:wmo:42046:1,2012-06-03T19:00:00Z,27.8903,-94.0367,4.0,6.202104482,160.6012161,7.48,'11111222,11111222,11111222' 
TABS,ioos:station:wmo:42046:1,2012-06-03T19:30:00Z,27.8903,-94.0367,4.0,6.155274161,164.4512224,7.09,'11111222,11111222,11111222' 
TABS,ioos:station:wmo:42046:1,2012-06-03T20:00:00Z,27.8903,-94.0367,4.0,5.794661336,157.152221,6.66,'11111222,11111222,11111222' 
TABS,ioos:station:wmo:42046:1,2012-06-03T20:30:00Z,27.8903,-94.0367,4.0,5.55600576,158.2371512,6.63,'11111222,11111222,11111222' 
TABS,ioos:station:wmo:42046:1,2012-06-03T21:00:00Z,27.8903,-94.0367,4.0,5.447907855,156.8707217,6.32,'11111222,11111222,11111222' 
TABS,ioos:station:wmo:42046:1,2012-06-03T21:30:00Z,27.8903,-94.0367,4.0,5.704910166,158.8329576,6.91,'11111222,11111222,11111222' 
TABS,ioos:station:wmo:42046:1,2012-06-03T22:00:00Z,27.8903,-94.0367,4.0,5.388821764,162.1705179,6.25,'11111222,11111222,11111222' 
TABS,ioos:station:wmo:42046:1,2012-06-03T22:30:00Z,27.8903,-94.0367,4.0,6.1393485,169.6786936,7.01,'11111222,11111222,11111222' 
TABS,ioos:station:wmo:42046:1,2012-06-03T23:00:00Z,27.8903,-94.0367,4.0,6.182337746,158.9560949,7.02,'11111222,11111222,11111222' 
TABS,ioos:station:wmo:42046:1,2012-06-03T23:30:00Z,27.8903,-94.0367,4.0,6.305870281,153.0288761,7.56,'11111222,11111222,11111222' 
TABS,ioos:station:wmo:42046:1,2012-06-04T00:00:00Z,27.8903,-94.0367,4.0,6.158157192,153.2687857,7.19,'11111222,11111222,11111222' 
TABS,ioos:station:wmo:42046:1,2012-06-04T00:30:00Z,27.8903,-94.0367,4.0,6.635307077,148.8736288,7.58,'11111222,11111222,11111222' 
TABS,ioos:station:wmo:42046:1,2012-06-04T01:00:00Z,27.8903,-94.0367,4.0,6.399257769,148.2226788,7.74,'11111222,11111222,11111222' 
TABS,ioos:station:wmo:42046:1,2012-06-04T01:30:00Z,27.8903,-94.0367,4.0,7.030007112,143.2119006,8.16,'11111222,11111222,11111222' 
TABS,ioos:station:wmo:42046:1,2012-06-04T02:00:00Z,27.8903,-94.0367,4.0,7.283090004,142.1391149,8.29,'11111222,11111222,11111222' 
TABS,ioos:station:wmo:42046:1,2012-06-04T02:30:00Z,27.8903,-94.0367,4.0,7.593187736,141.4701205,9.07,'11111222,11111222,11111222' 
TABS,ioos:station:wmo:42046:1,2012-06-04T03:00:00Z,27.8903,-94.0367,4.0,7.152908499,144.0435912,8.66,'11111222,11111222,11111222' 
TABS,ioos:station:wmo:42046:1,2012-06-04T03:30:00Z,27.8903,-94.0367,4.0,7.680501286,144.592695,8.96,'11111222,11111222,11111222' 
TABS,ioos:station:wmo:42046:1,2012-06-04T04:00:00Z,27.8903,-94.0367,4.0,8.251042358,139.6701594,9.43,'11111222,11111222,11111222' 
TABS,ioos:station:wmo:42046:1,2012-06-04T04:30:00Z,27.8903,-94.0367,4.0,8.014168703,142.7586332,9.37,'11111222,11111222,11111222' 
TABS,ioos:station:wmo:42046:1,2012-06-04T05:00:00Z,27.8903,-94.0367,4.0,7.933649854,153.1768437,9.44,'11111222,11111222,11111222' 
TABS,ioos:station:wmo:42046:1,2012-06-04T05:30:00Z,27.8903,-94.0367,4.0,8.085196349,158.0672591,9.37,'11111222,11111222,11111222' 
TABS,ioos:station:wmo:42046:1,2012-06-04T06:00:00Z,27.8903,-94.0367,4.0,7.696297811,166.7043058,8.73,'11111222,11111222,11111222' 
TABS,ioos:station:wmo:42046:1,2012-06-04T06:30:00Z,27.8903,-94.0367,4.0,7.875563472,165.3640673,9.24,'11111222,11111222,11111222' 
TABS,ioos:station:wmo:42046:1,2012-06-04T07:00:00Z,27.8903,-94.0367,4.0,7.755385226,167.7919638,9.2,'11111222,11111222,11111222' 
TABS,ioos:station:wmo:42046:1,2012-06-04T07:30:00Z,27.8903,-94.0367,4.0,7.51910899,168.5707519,8.73,'11111222,11111222,11111222' 
TABS,ioos:station:wmo:42046:1,2012-06-04T08:00:00Z,27.8903,-94.0367,4.0,6.314697142,173.179074,7.36,'11111222,11111222,11111222' 
TABS,ioos:station:wmo:42046:1,2012-06-04T08:30:00Z,27.8903,-94.0367,4.0,6.411318117,181.1620534,7.35,'11111222,11111222,11111222' 
TABS,ioos:station:wmo:42046:1,2012-06-04T09:00:00Z,27.8903,-94.0367,4.0,5.890033956,179.8056589,6.96,'11111222,11111222,11111222' 
TABS,ioos:station:wmo:42046:1,2012-06-04T09:30:00Z,27.8903,-94.0367,4.0,5.828790612,183.1473177,6.72,'11111222,11111222,11111222' 
TABS,ioos:station:wmo:42046:1,2012-06-04T10:00:00Z,27.8903,-94.0367,4.0,5.340262166,171.3845824,6.66,'11111222,11111222,11111222' 
TABS,ioos:station:wmo:42046:1,2012-06-04T10:30:00Z,27.8903,-94.0367,4.0,5.450009174,180.10534,6.41,'11111222,11111222,11111222' 
TABS,ioos:station:wmo:42046:1,2012-06-04T11:00:00Z,27.8903,-94.0367,4.0,5.193197474,184.0858177,6.05,'11111222,11111222,11111222' 
TABS,ioos:station:wmo:42046:1,2012-06-04T11:30:00Z,27.8903,-94.0367,4.0,4.958487673,176.6473284,5.85,'11111222,11111222,11111222' 
TABS,ioos:station:wmo:42046:1,2012-06-04T12:00:00Z,27.8903,-94.0367,4.0,4.80066662,180.9550495,5.6,'11111222,11111222,11111222' 
TABS,ioos:station:wmo:42046:1,2012-06-04T12:30:00Z,27.8903,-94.0367,4.0,5.240400748,183.610637,6.14,'11111222,11111222,11111222' 
TABS,ioos:station:wmo:42046:1,2012-06-04T13:00:00Z,27.8903,-94.0367,4.0,5.897965751,184.4734122,6.81,'11111222,11111222,11111222' 
TABS,ioos:station:wmo:42046:1,2012-06-04T13:30:00Z,27.8903,-94.0367,4.0,5.976964112,175.6823895,7.18,'11111222,11111222,11111222' 
TABS,ioos:station:wmo:42046:1,2012-06-04T14:00:00Z,27.8903,-94.0367,4.0,5.060207506,170.4448376,6.42,'11111222,11111222,11111222' 
TABS,ioos:station:wmo:42046:1,2012-06-04T14:30:00Z,27.8903,-94.0367,4.0,5.512939325,178.1291488,6.23,'11111222,11111222,11111222' 
TABS,ioos:station:wmo:42046:1,2012-06-04T15:00:00Z,27.8903,-94.0367,4.0,4.665501045,175.3283671,5.31,'11111222,11111222,11111222' 
TABS,ioos:station:wmo:42046:1,2012-06-04T15:30:00Z,27.8903,-94.0367,4.0,4.694699138,177.4364462,5.46,'11111222,11111222,11111222' 
TABS,ioos:station:wmo:42046:1,2012-06-04T16:00:00Z,27.8903,-94.0367,4.0,3.984833748,163.9758507,5.02,'11111222,11111222,11111222' 
TABS,ioos:station:wmo:42046:1,2012-06-04T16:30:00Z,27.8903,-94.0367,4.0,4.364916952,170.1063129,5.23,'11111222,11111222,11111222' 
TABS,ioos:station:wmo:42046:1,2012-06-04T17:00:00Z,27.8903,-94.0367,4.0,4.277908367,155.412215,4.94,'11111222,11111222,11111222' 
TABS,ioos:station:wmo:42046:1,2012-06-04T17:30:00Z,27.8903,-94.0367,4.0,4.816523643,153.2224252,5.38,'11111222,11111222,11111222' 
TABS,ioos:station:wmo:42046:1,2012-06-04T18:00:00Z,27.8903,-94.0367,4.0,4.551098768,144.3894413,5.11,'11111222,11111222,11111222' 
TABS,ioos:station:wmo:42046:1,2012-06-04T18:30:00Z,27.8903,-94.0367,4.0,4.041051843,145.9956297,4.82,'11111222,11111222,11111222' 